TimeEDT,TemperatureF,Dew PointF,Humidity,Sea Level PressureIn,VisibilityMPH,Wind Direction,Wind SpeedMPH,Gust SpeedMPH,PrecipitationIn,Events,Conditions,WindDirDegrees,DateUTC
12:16 AM,36.7,26.8,67,30.43,10.0,NNE,4.6,-,N/A,,Overcast,20,2013-10-29 04:16:00
12:35 AM,36.5,26.1,66,30.43,10.0,NNE,5.8,-,N/A,,Overcast,30,2013-10-29 04:35:00
12:56 AM,35.8,26.2,68,30.43,10.0,NE,5.8,-,N/A,,Overcast,40,2013-10-29 04:56:00
1:16 AM,35.1,25.5,68,30.43,10.0,NNE,4.6,-,N/A,,Overcast,30,2013-10-29 05:16:00
1:35 AM,34.9,25.5,69,30.43,10.0,NNE,4.6,-,N/A,,Overcast,30,2013-10-29 05:35:00
1:56 AM,34.5,25.5,70,30.43,10.0,NNE,4.6,-,N/A,,Overcast,30,2013-10-29 05:56:00
2:16 AM,33.8,25.3,71,30.43,10.0,NE,3.5,-,N/A,,Overcast,40,2013-10-29 06:16:00
2:35 AM,32.5,25.2,74,30.43,10.0,NNE,3.5,-,N/A,,Overcast,30,2013-10-29 06:35:00
2:56 AM,31.8,25.0,76,30.43,10.0,NNE,3.5,-,N/A,,Overcast,20,2013-10-29 06:56:00
3:16 AM,31.1,24.8,77,30.43,10.0,NNE,4.6,-,N/A,,Mostly Cloudy,20,2013-10-29 07:16:00
3:35 AM,30.4,24.8,80,30.44,10.0,North,3.5,-,N/A,,Mostly Cloudy,10,2013-10-29 07:35:00
3:56 AM,30.2,24.8,80,30.44,10.0,Calm,Calm,-,N/A,,Mostly Cloudy,0,2013-10-29 07:56:00
4:16 AM,30.7,25.5,81,30.44,10.0,North,3.5,-,N/A,,Overcast,360,2013-10-29 08:16:00
4:35 AM,30.7,25.3,80,30.44,10.0,Calm,Calm,-,N/A,,Overcast,0,2013-10-29 08:35:00
4:56 AM,30.7,25.0,79,30.44,10.0,North,3.5,-,N/A,,Overcast,10,2013-10-29 08:56:00
5:16 AM,30.2,24.8,80,30.44,10.0,North,3.5,-,N/A,,Overcast,10,2013-10-29 09:16:00
5:35 AM,30.0,24.8,81,30.43,10.0,Calm,Calm,-,N/A,,Overcast,0,2013-10-29 09:35:00
5:56 AM,29.3,24.6,83,30.43,10.0,Calm,Calm,-,N/A,,Overcast,0,2013-10-29 09:56:00
6:16 AM,29.3,24.8,83,30.45,10.0,Calm,Calm,-,N/A,,Overcast,0,2013-10-29 10:16:00
6:35 AM,29.3,24.8,83,30.45,10.0,Calm,Calm,-,N/A,,Overcast,0,2013-10-29 10:35:00
6:56 AM,29.7,25.0,83,30.45,10.0,Calm,Calm,-,N/A,,Overcast,0,2013-10-29 10:56:00
7:16 AM,29.5,24.8,83,30.43,10.0,Calm,Calm,-,N/A,,Overcast,0,2013-10-29 11:16:00
7:35 AM,29.1,24.8,84,30.43,10.0,Calm,Calm,-,N/A,,Overcast,0,2013-10-29 11:35:00
7:56 AM,29.1,24.8,84,30.43,10.0,North,4.6,-,N/A,,Overcast,10,2013-10-29 11:56:00
8:16 AM,29.3,24.8,83,30.43,10.0,North,3.5,-,N/A,,Overcast,10,2013-10-29 12:16:00
8:35 AM,30.0,24.8,81,30.43,10.0,NNE,4.6,-,N/A,,Overcast,20,2013-10-29 12:35:00
8:56 AM,30.9,24.6,77,30.44,10.0,Calm,Calm,-,N/A,,Overcast,0,2013-10-29 12:56:00
9:16 AM,31.6,24.6,75,30.44,10.0,Calm,Calm,-,N/A,,Overcast,0,2013-10-29 13:16:00
9:35 AM,32.0,23.9,72,30.45,10.0,NNE,3.5,-,N/A,,Overcast,30,2013-10-29 13:35:00
9:56 AM,32.5,24.3,72,30.46,10.0,NE,3.5,-,N/A,,Overcast,40,2013-10-29 13:56:00
10:16 AM,33.3,24.8,71,30.46,10.0,NE,3.5,-,N/A,,Overcast,50,2013-10-29 14:16:00
10:36 AM,33.8,25.0,70,30.46,10.0,Calm,Calm,-,N/A,,Overcast,0,2013-10-29 14:36:00
10:56 AM,34.2,25.5,71,30.45,10.0,ENE,3.5,-,N/A,,Overcast,60,2013-10-29 14:56:00
11:15 AM,34.9,25.9,70,30.45,10.0,Calm,Calm,-,N/A,,Overcast,0,2013-10-29 15:15:00
11:36 AM,36.0,26.8,69,30.43,10.0,ENE,4.6,-,N/A,,Overcast,60,2013-10-29 15:36:00
11:56 AM,36.5,27.5,70,30.43,10.0,ENE,5.8,-,N/A,,Overcast,70,2013-10-29 15:56:00
12:15 PM,37.4,28.0,69,30.43,10.0,East,4.6,-,N/A,,Overcast,80,2013-10-29 16:15:00
12:36 PM,38.3,28.4,68,30.41,10.0,East,6.9,-,N/A,,Overcast,90,2013-10-29 16:36:00
12:56 PM,39.0,29.1,68,30.41,10.0,ENE,4.6,-,N/A,,Overcast,70,2013-10-29 16:56:00
1:15 PM,39.6,29.1,66,30.40,10.0,ENE,5.8,-,N/A,,Overcast,60,2013-10-29 17:15:00
1:36 PM,39.7,29.1,66,30.38,10.0,East,3.5,-,N/A,,Overcast,90,2013-10-29 17:36:00
1:55 PM,40.3,29.8,66,30.37,10.0,East,4.6,-,N/A,,Overcast,80,2013-10-29 17:55:00
2:16 PM,40.5,30.0,66,30.37,10.0,East,4.6,-,N/A,,Overcast,80,2013-10-29 18:16:00
2:36 PM,40.8,30.0,65,30.37,10.0,East,4.6,-,N/A,,Overcast,80,2013-10-29 18:36:00
2:55 PM,40.8,30.7,67,30.36,10.0,Calm,Calm,-,N/A,Rain,Rain,0,2013-10-29 18:55:00
3:16 PM,39.4,32.2,75,30.35,10.0,ENE,3.5,-,N/A,Rain,Light Rain,60,2013-10-29 19:16:00
3:36 PM,39.2,33.6,80,30.34,10.0,Calm,Calm,-,N/A,Rain,Light Rain,0,2013-10-29 19:36:00
3:55 PM,38.8,34.0,83,30.33,10.0,ENE,4.6,-,N/A,,Overcast,70,2013-10-29 19:55:00
4:16 PM,39.2,34.3,83,30.33,10.0,NE,4.6,-,N/A,,Overcast,50,2013-10-29 20:16:00
4:36 PM,39.2,34.3,83,30.33,10.0,NE,3.5,-,N/A,,Overcast,50,2013-10-29 20:36:00
4:55 PM,39.4,34.9,84,30.33,10.0,NE,3.5,-,N/A,,Overcast,40,2013-10-29 20:55:00
5:16 PM,39.4,34.7,83,30.33,10.0,NE,3.5,-,N/A,,Overcast,50,2013-10-29 21:16:00
5:36 PM,39.4,34.7,83,30.33,10.0,East,4.6,-,N/A,,Overcast,80,2013-10-29 21:36:00
5:55 PM,39.2,34.5,83,30.32,10.0,ENE,5.8,-,N/A,,Overcast,60,2013-10-29 21:55:00
6:16 PM,39.2,34.3,83,30.31,10.0,NE,4.6,-,N/A,,Overcast,50,2013-10-29 22:16:00
6:36 PM,38.5,33.8,83,30.31,10.0,ENE,3.5,-,N/A,,Overcast,60,2013-10-29 22:36:00
6:55 PM,38.3,33.8,84,30.31,10.0,NE,4.6,-,N/A,,Overcast,50,2013-10-29 22:55:00
7:16 PM,37.6,33.8,86,30.30,10.0,ENE,3.5,-,N/A,,Mostly Cloudy,70,2013-10-29 23:16:00
7:36 PM,37.4,33.8,87,30.30,10.0,Calm,Calm,-,N/A,,Scattered Clouds,0,2013-10-29 23:36:00
7:55 PM,37.0,33.8,88,30.30,10.0,Calm,Calm,-,N/A,,Scattered Clouds,0,2013-10-29 23:55:00
8:16 PM,36.5,33.1,87,30.30,10.0,Calm,Calm,-,N/A,,Scattered Clouds,0,2013-10-30 00:16:00
8:36 PM,35.8,33.1,90,30.29,10.0,Calm,Calm,-,N/A,,Clear,0,2013-10-30 00:36:00
8:55 PM,35.8,33.4,91,30.29,10.0,Calm,Calm,-,N/A,,Clear,0,2013-10-30 00:55:00
9:16 PM,35.2,33.1,92,30.28,10.0,Calm,Calm,-,N/A,,Clear,0,2013-10-30 01:16:00
9:36 PM,34.5,32.7,93,30.27,10.0,Calm,Calm,-,N/A,,Clear,0,2013-10-30 01:36:00
9:55 PM,34.2,32.5,94,30.26,7.0,Calm,Calm,-,N/A,,Clear,0,2013-10-30 01:55:00
10:16 PM,34.9,33.3,94,30.25,7.0,Calm,Calm,-,N/A,,Clear,0,2013-10-30 02:16:00
10:36 PM,33.3,32.0,95,30.25,5.0,Calm,Calm,-,N/A,,Clear,0,2013-10-30 02:36:00
10:55 PM,32.0,31.1,96,30.24,1.8,Calm,Calm,-,N/A,,Mist,0,2013-10-30 02:55:00
11:16 PM,33.1,32.0,96,30.24,5.0,Calm,Calm,-,N/A,,Scattered Clouds,0,2013-10-30 03:16:00
11:36 PM,33.1,32.0,96,30.24,5.0,Calm,Calm,-,N/A,,Scattered Clouds,0,2013-10-30 03:36:00
11:55 PM,33.8,32.4,94,30.24,5.0,Calm,Calm,-,N/A,,Scattered Clouds,0,2013-10-30 03:55:00